Vorticity
1 2 2 2 1 1 0 1 1 0 1 0 -0 1 1 2 2 3 4 3 4 5 5 5 3 4 3 3 3 2 2 2 2 3 3 3 3 3 3 3 2 3 3 2 2 2 2 2 3 2 2 3 3 3 3 3 3 3 2 3 4 5 4 3 3 4 4 5 5 5 6 6 4 4 4 4 4 5 6 6 5 6 6 6 6 6 5 5
1 1 1 1 1 1 1 0 1 1 0 0 0 1 1 1 1 0 2 3 4 5 6 7 7 6 5 5 4 4 3 3 2 2 2 1 1 1 1 1 2 2 3 3 3 3 3 3 3 4 3 3 4 4 4 3 4 3 3 3 4 3 2 1 2 2 3 4 3 2 3 2 2 4 5 5 5 5 5 5 4 4 4 4 5 5 4 5
1 1 1 0 0 -0 0 0 1 2 2 1 1 1 1 0 -0 -1 1 3 4 6 7 9 9 8 7 6 6 6 6 6 5 5 5 5 4 4 4 5 5 5 6 6 6 6 6 6 5 6 6 5 5 6 5 5 5 4 4 5 4 3 2 3 4 3 3 4 5 3 2 1 2 3 3 4 5 5 3 4 5 5 5 5 5 5 5 4
1 0 0 -0 1 0 0 1 1 3 2 2 1 -0 0 -1 -1 0 2 4 6 8 9 10 10 9 8 7 7 6 7 7 7 8 7 8 7 7 7 6 6 6 5 5 5 6 6 6 6 7 7 6 6 6 6 6 5 5 5 5 5 4 3 3 4 5 5 6 5 3 2 3 4 4 3 3 4 4 3 2 4 5 6 6 6 6 6 6
0 -1 1 -0 0 1 0 1 1 3 2 1 1 -1 -0 -0 0 1 3 6 8 10 11 12 11 9 8 7 7 7 8 8 7 7 7 7 6 6 5 5 5 4 5 5 5 5 5 5 5 5 5 5 5 5 4 5 5 5 4 6 6 3 2 3 5 6 6 5 4 3 3 4 4 5 5 6 5 4 3 2 3 4 4 5 5 6 7 8
1 -0 1 1 1 1 1 2 1 2 1 0 -0 -1 -0 0 1 3 7 10 11 12 12 12 11 10 8 7 8 8 8 8 6 5 5 5 5 6 6 6 7 7 7 7 7 6 6 5 5 4 4 4 4 3 2 2 3 2 4 7 6 4 3 5 8 10 10 9 7 6 4 5 7 7 6 6 6 5 6 7 7 6 6 6 6 7 7 8
1 1 2 2 2 2 1 1 1 1 1 1 1 0 1 2 5 9 12 13 12 12 11 11 11 10 9 8 7 7 7 7 5 5 6 6 8 9 9 8 7 7 7 6 6 5 5 4 4 3 3 3 2 2 3 3 3 3 5 6 5 6 6 7 11 12 11 10 11 10 8 8 9 9 8 7 7 8 9 9 8 7 7 8 7 7 7 7
1 1 1 2 1 1 2 2 2 2 2 2 2 2 5 9 11 14 13 12 10 10 11 11 11 11 10 9 9 8 7 7 8 9 9 9 10 8 6 5 4 4 4 4 4 3 4 4 4 4 5 6 6 7 7 7 8 8 8 7 8 10 8 9 11 10 10 12 13 11 9 10 11 11 10 9 9 9 9 8 8 8 8 8 8 8 8 8
1 1 1 1 1 1 1 2 2 1 2 2 4 7 10 13 14 13 11 9 10 11 12 13 13 13 12 11 10 10 9 8 8 8 8 6 5 4 4 4 4 5 5 6 7 7 8 9 10 10 12 12 13 14 12 14 14 13 13 13 16 15 13 13 14 15 16 15 11 8 9 13 14 13 11 10 11 10 9 9 9 10 9 8 8 8 9 9
1 1 0 1 0 1 0 1 2 2 4 6 9 13 14 14 12 10 9 10 12 13 13 12 11 10 10 9 7 7 8 6 5 5 4 4 5 6 7 7 8 9 10 11 12 12 12 13 14 13 14 14 14 14 13 16 15 15 17 18 18 17 18 20 17 16 15 13 11 13 15 14 12 12 12 13 13 12 11 10 10 11 11 10 10 9 9 9
1 1 0 1 1 1 2 3 4 6 9 12 13 13 13 12 9 10 11 12 12 10 8 6 6 6 5 5 4 5 6 4 4 6 6 7 9 9 10 10 11 11 12 13 13 13 12 12 12 12 13 12 12 13 15 16 14 16 16 16 17 16 17 17 15 16 15 12 12 15 14 11 11 12 13 14 13 12 11 11 11 11 12 12 11 9 8 8
0 1 1 2 2 3 4 5 7 10 13 13 13 12 11 10 11 12 12 9 7 5 4 4 4 4 5 5 5 5 5 6 7 8 9 9 9 10 10 11 11 11 11 10 10 10 10 9 9 10 10 9 10 11 13 12 14 16 14 14 16 12 12 12 13 15 13 10 10 11 9 8 11 11 11 11 10 11 11 12 12 11 11 11 11 11 10 9
1 2 2 3 4 5 6 8 10 11 12 12 12 12 12 12 12 10 7 5 4 4 5 5 5 6 7 7 7 8 8 9 10 10 11 11 11 9 9 10 10 10 10 9 8 9 9 8 8 8 9 10 10 10 9 10 12 13 10 12 11 7 9 10 9 10 9 8 8 8 7 7 10 8 9 10 11 12 11 11 11 10 10 10 11 11 11 10
1 2 3 4 5 6 8 10 11 12 13 15 15 14 13 10 8 6 4 5 5 6 7 7 8 8 9 9 9 10 9 10 11 11 10 10 12 12 11 11 10 10 11 10 10 10 11 11 12 12 13 13 12 12 12 12 11 8 7 10 8 6 8 7 6 7 6 6 5 5 5 6 7 6 7 8 9 9 8 9 9 7 7 5 5 5 5 5
3 3 4 6 7 9 10 11 13 16 18 17 15 12 9 6 5 5 5 6 6 7 8 9 9 9 9 10 10 10 11 12 11 10 10 10 11 12 13 12 12 12 12 13 12 13 13 13 13 14 13 12 12 12 12 12 11 9 9 9 8 7 7 6 7 6 6 6 5 6 5 6 7 6 7 8 8 8 7 7 6 5 4 4 4 4 4 4
4 5 7 9 9 11 12 16 20 20 18 14 10 7 5 5 6 6 6 7 8 8 9 10 10 10 11 12 12 13 11 10 11 11 11 12 11 11 11 11 11 11 10 10 10 10 10 9 10 9 8 9 9 9 8 8 9 8 7 7 7 8 8 7 7 6 7 7 7 7 7 7 7 7 7 7 7 7 6 5 5 6 6 6 6 6 6 6
6 8 9 10 11 15 19 22 20 16 12 8 5 5 5 6 6 7 8 8 9 10 11 11 12 13 12 11 11 10 9 10 11 11 10 10 10 9 9 8 8 8 7 7 7 7 6 6 7 7 6 6 6 6 7 7 7 7 7 6 5 5 6 6 6 6 6 5 6 6 5 5 5 6 6 5 5 5 5 5 6 6 6 6 6 6 6 6
10 9 9 13 18 22 21 17 13 9 7 5 6 6 6 7 8 8 9 9 10 11 11 11 11 11 11 10 9 9 10 11 9 8 9 8 7 7 6 6 6 6 6 6 6 5 6 7 7 7 7 6 6 6 7 7 7 7 6 6 6 7 6 6 6 6 5 5 5 4 4 5 5 5 4 4 5 5 6 7 7 8 7 7 7 8 9 9
9 11 16 22 22 18 13 9 7 5 5 6 6 6 7 8 9 8 10 12 12 11 10 11 10 9 10 9 9 10 10 8 6 7 8 6 5 6 6 6 6 6 6 6 7 7 7 8 7 8 8 7 7 7 8 8 7 6 6 7 8 7 7 7 8 7 7 6 6 7 7 6 6 6 7 8 8 8 10 11 11 11 11 11 12 12 13 14
14 20 22 19 14 10 8 6 6 5 6 6 6 7 8 8 10 11 12 12 10 9 9 9 9 9 9 7 9 9 6 5 5 5 6 5 5 7 7 8 9 10 10 9 10 10 10 10 10 10 10 10 11 11 11 9 9 9 9 9 9 8 8 8 7 6 6 7 6 7 7 6 7 7 7 7 7 8 9 9 9 9 10 11 10 10 10 10
23 21 14 10 8 7 6 5 6 6 6 6 7 8 8 9 11 10 10 10 8 8 8 8 9 8 5 7 9 5 4 6 6 6 8 8 9 10 10 11 11 11 11 11 11 11 10 11 11 10 10 10 10 11 12 11 10 11 11 11 11 11 11 10 10 9 9 9 8 9 9 8 8 8 8 8 8 8 7 8 9 8 8 8 9 9 9 9
16 10 8 8 7 5 5 6 6 6 7 8 9 9 10 12 11 9 10 10 8 7 8 9 7 5 3 7 8 4 7 9 9 11 11 11 12 12 11 11 10 10 10 9 8 8 7 8 7 6 7 7 7 8 8 7 7 8 8 8 8 9 10 11 12 11 10 10 10 11 11 10 10 10 11 11 11 11 11 11 11 12 13 13 13 13 13 13
7 7 7 6 5 6 7 7 6 7 8 9 10 11 12 12 10 9 9 8 7 7 8 7 4 3 5 9 9 8 11 11 11 12 11 10 10 8 9 8 7 8 7 7 7 7 7 8 7 8 8 8 9 8 7 8 8 7 7 6 7 7 8 8 8 7 7 7 9 11 8 6 8 9 10 11 10 9 10 11 12 12 13 13 15 16 17 18
7 6 5 5 7 7 7 7 7 9 9 10 11 11 10 9 7 7 7 7 6 6 7 5 3 7 10 11 12 12 12 11 10 9 7 8 8 7 8 8 9 9 9 9 9 9 10 9 9 10 10 10 11 10 9 11 11 11 10 10 10 10 10 9 9 8 7 8 10 9 5 5 9 11 10 8 8 10 11 12 11 11 13 15 17 17 16 15
6 6 7 7 7 6 7 8 9 9 10 11 10 9 7 6 7 7 8 7 4 6 8 5 7 13 13 13 13 9 8 8 8 8 8 9 10 8 8 9 9 8 7 8 9 10 10 10 11 11 11 11 10 10 10 11 11 12 11 11 11 10 11 10 9 8 8 10 10 8 8 10 10 9 9 9 10 12 13 14 17 20 20 17 14 12 10 9
7 8 7 7 7 7 8 8 8 10 11 10 8 7 7 6 8 7 6 5 5 8 9 9 13 14 11 10 9 6 7 9 9 8 8 9 7 5 6 7 7 6 7 8 9 9 8 10 11 10 10 11 11 11 12 12 11 10 9 9 9 9 8 8 7 8 9 9 7 9 12 11 9 9 11 14 15 16 19 22 22 18 13 9 8 8 8 8
7 7 6 7 6 7 9 8 10 11 9 7 6 6 7 7 7 5 4 7 10 11 12 14 14 10 7 8 8 8 9 9 7 4 4 7 5 3 6 6 5 7 7 8 9 9 9 11 11 10 11 12 11 11 10 9 8 7 7 7 7 7 7 7 7 8 9 6 8 15 15 11 11 11 11 15 18 22 22 18 13 8 5 5 6 9 11 13
6 6 7 7 7 9 10 10 11 10 5 5 6 7 7 7 5 4 8 13 14 13 13 12 9 6 8 9 8 7 7 6 5 3 3 7 4 3 7 6 6 8 9 10 10 10 11 12 11 11 11 9 8 7 5 4 4 4 5 5 7 8 7 9 9 9 9 8 12 16 13 12 13 13 14 14 14 17 16 13 11 5 2 6 12 15 16 14
6 7 7 7 10 11 11 11 10 6 5 7 7 6 6 5 6 10 14 16 14 11 10 8 7 8 8 7 6 4 3 4 5 3 5 7 4 5 9 7 7 9 11 11 11 12 12 11 9 7 6 5 4 4 3 4 4 5 5 7 10 11 11 14 14 12 13 15 17 13 9 12 11 10 13 14 17 19 14 8 2 -2 5 15 18 15 12 11
7 8 8 9 11 12 12 11 8 6 8 8 5 5 6 8 12 15 16 14 9 8 9 7 6 8 6 4 4 3 2 4 5 5 6 6 5 7 9 8 9 11 11 12 11 11 9 8 7 5 4 4 4 4 5 5 6 7 8 9 11 11 15 19 17 18 21 21 20 16 16 18 18 21 22 20 18 10 -1 -3 2 10 18 18 12 10 11 12
8 8 8 10 12 13 11 9 9 9 8 5 4 8 11 15 17 14 12 10 7 8 10 6 3 5 4 3 4 4 4 3 5 8 9 7 7 9 10 10 11 12 11 12 10 8 7 6 5 4 5 4 5 7 7 9 9 9 10 10 11 11 13 18 18 21 24 20 19 21 22 23 21 18 12 5 3 3 6 15 19 19 15 9 9 12 13 12
9 9 11 13 13 11 10 10 9 7 5 5 10 14 15 16 13 10 8 8 7 7 8 6 2 1 3 4 3 5 6 3 5 11 10 8 9 9 9 10 10 10 10 9 7 6 7 6 5 5 6 6 7 7 7 9 9 9 11 12 14 12 13 18 18 19 21 20 21 19 15 14 9 3 3 8 14 19 18 13 9 7 6 9 13 12 12 13
11 13 13 12 11 9 8 8 6 5 8 12 15 15 13 11 9 8 7 7 7 5 5 6 4 1 3 5 3 4 7 6 7 10 10 8 10 11 12 13 12 11 11 9 6 5 5 6 6 7 7 8 8 7 8 9 9 12 15 15 18 18 20 21 18 18 19 18 19 15 12 14 13 12 17 19 16 11 3 0 5 9 11 12 12 12 12 11
15 14 11 10 10 8 6 6 8 11 13 15 14 12 10 8 7 9 8 6 5 2 2 5 4 2 3 6 5 5 6 7 8 10 10 10 11 11 12 12 11 11 10 7 6 7 7 7 7 7 7 8 8 9 11 12 14 18 18 19 22 23 23 22 20 20 18 15 17 18 17 17 14 14 13 8 5 7 8 11 14 13 13 13 12 10 7 5
13 11 9 8 6 5 7 11 14 14 14 13 11 9 9 8 7 7 7 5 4 2 1 4 3 3 4 5 6 6 7 9 9 9 10 11 11 11 11 11 10 8 6 6 7 9 9 9 8 9 9 8 8 9 10 12 16 18 18 21 22 19 19 20 21 20 14 15 20 19 16 14 13 15 12 9 11 14 15 16 16 14 13 10 6 5 5 6
10 8 5 4 5 10 14 15 15 12 10 11 10 7 9 9 6 5 5 4 4 2 2 4 4 5 5 6 8 8 9 10 9 10 12 11 10 10 10 11 9 7 7 8 9 8 6 8 9 8 8 8 8 11 12 15 18 18 17 20 20 18 19 18 18 17 14 17 20 15 13 15 16 17 15 14 15 15 15 14 12 10 7 5 5 6 7 7
6 5 5 8 13 16 14 12 11 10 8 10 10 8 8 8 6 4 3 3 3 3 3 5 5 5 6 8 9 9 10 11 10 11 11 10 9 10 10 10 8 8 9 10 10 9 6 8 9 7 8 9 10 14 18 19 20 19 17 18 17 16 18 16 15 17 17 17 18 16 15 16 18 18 17 17 16 14 12 9 7 6 5 6 7 6 6 4
6 9 12 14 14 12 10 9 9 9 9 9 9 9 7 6 5 4 3 3 3 3 4 5 6 7 8 9 9 9 11 12 10 9 9 9 10 10 9 9 8 9 10 10 10 10 7 7 9 9 9 10 12 18 21 19 20 21 17 15 16 14 15 17 15 15 16 14 14 18 19 18 18 16 13 13 11 8 6 6 6 5 4 4 4 3 2 1
12 14 14 13 11 9 9 9 8 9 9 8 7 7 6 4 4 4 3 4 4 4 5 7 7 8 9 9 9 11 11 9 8 8 9 10 9 9 9 9 10 10 10 10 9 10 9 7 9 10 10 12 15 17 17 16 19 20 13 13 16 14 15 19 16 11 12 11 8 10 16 16 12 9 9 8 6 6 6 7 5 3 4 5 3 2 2 3
13 11 10 9 9 8 9 9 8 8 9 8 6 5 5 4 3 4 4 4 5 5 6 8 9 9 10 11 11 11 9 7 8 9 10 10 9 9 10 10 10 10 10 10 9 9 9 8 9 11 11 12 14 15 15 17 19 18 12 13 16 13 14 17 14 11 9 9 7 5 9 12 8 7 10 7 5 8 8 6 5 6 6 4 3 4 5 6
9 8 9 9 8 9 9 8 9 9 7 6 6 5 5 4 4 4 5 5 6 7 8 9 9 9 11 12 10 8 7 8 9 10 10 10 9 9 10 10 10 10 10 9 9 9 8 9 11 11 11 13 15 17 17 18 19 16 13 15 16 13 14 13 12 13 8 6 9 6 4 10 9 8 8 6 7 9 7 5 6 7 5 4 5 6 5 5
8 8 8 8 7 9 8 7 8 9 7 5 4 5 5 4 5 5 5 7 8 9 10 9 10 11 11 10 8 6 7 9 10 10 9 9 10 10 10 10 10 10 10 9 9 9 9 10 11 12 14 15 16 18 18 16 17 16 13 15 15 13 13 9 7 10 8 8 11 5 3 10 9 6 6 7 9 8 5 6 7 6 5 4 5 5 5 6
6 7 8 8 8 10 9 7 7 6 7 6 4 4 5 5 5 6 8 9 9 9 10 10 11 12 10 9 7 6 8 10 9 10 9 9 10 10 10 10 10 10 11 11 11 11 11 11 11 13 17 17 16 18 19 16 15 16 15 15 14 12 11 9 5 6 9 10 9 4 5 9 7 6 8 8 8 7 6 7 6 4 4 5 5 6 6 6
6 6 7 7 8 10 8 6 7 5 5 8 5 3 6 6 6 8 9 9 9 9 10 12 11 11 9 7 6 7 9 9 9 9 9 9 10 9 10 11 11 12 11 11 11 11 11 12 12 13 16 17 16 18 21 20 15 13 14 14 13 11 9 8 6 8 10 9 7 6 7 9 9 8 8 7 7 6 6 6 5 5 6 6 6 6 6 7
10 9 8 6 6 8 6 6 9 6 3 7 7 3 6 9 7 9 10 9 10 11 11 12 11 10 8 6 7 8 8 9 9 9 9 9 10 10 11 11 12 12 11 11 11 10 12 12 11 12 12 11 11 12 14 17 15 12 13 13 12 10 9 8 8 10 9 8 10 8 5 9 12 7 5 8 7 6 6 7 6 7 7 7 7 7 7 8
7 7 9 10 8 7 7 6 8 8 4 6 8 5 6 10 9 10 11 10 11 12 12 12 11 9 8 7 7 8 8 9 10 10 9 10 10 11 11 12 13 12 10 11 11 10 12 12 10 12 11 9 11 12 10 13 16 15 15 13 11 10 10 10 10 9 8 8 11 8 4 10 12 5 6 10 7 5 7 7 8 8 8 8 7 7 8 9
7 5 5 8 9 7 7 6 8 9 6 5 7 7 8 10 10 10 11 11 11 12 12 11 10 9 8 7 8 9 9 10 10 9 9 10 11 11 12 13 13 12 11 12 11 10 12 11 9 10 11 9 9 12 13 13 14 16 16 15 12 11 11 11 9 8 8 8 9 8 7 11 10 6 9 9 7 8 9 8 9 8 7 8 7 8 9 9
11 12 7 4 7 8 7 6 7 8 6 5 7 9 10 10 11 11 11 11 11 11 11 10 10 9 8 7 8 10 10 10 10 10 10 11 12 12 12 13 12 12 11 11 10 9 11 11 9 10 11 9 8 11 15 15 15 16 18 17 14 12 12 12 11 10 10 8 9 11 12 11 9 9 11 11 9 10 10 9 9 8 7 8 8 8 8 6
7 13 13 6 5 9 8 6 6 7 7 7 7 9 12 11 10 11 10 10 11 11 10 11 10 9 9 9 9 10 9 9 10 10 10 12 12 12 12 13 12 12 11 11 10 11 12 11 9 10 11 10 10 11 12 14 16 17 17 17 17 16 15 16 14 11 11 11 11 13 15 13 9 9 11 11 10 10 10 10 9 7 7 6 6 7 6 6
4 8 14 9 5 9 9 6 6 6 7 8 8 9 12 11 10 11 9 9 10 10 10 11 10 10 10 9 10 10 9 9 10 10 11 12 11 12 13 13 12 12 12 12 11 11 12 11 10 10 11 10 10 9 9 11 13 13 14 15 17 18 17 18 15 10 11 19 19 13 12 12 10 10 11 10 9 9 9 8 7 5 5 5 6 6 6 6
6 7 11 10 5 7 8 5 6 6 6 8 9 10 12 10 8 9 8 8 9 9 10 11 10 10 10 10 10 11 10 10 11 10 11 12 11 12 14 13 12 12 12 12 12 12 12 12 10 10 11 11 10 10 10 12 12 11 13 14 14 15 17 18 15 5 3 14 18 12 8 9 7 7 7 7 6 6 6 5 5 5 5 6 6 6 6 7
8 7 9 9 6 5 6 5 6 7 7 7 9 10 11 10 8 8 8 7 8 9 10 11 10 10 10 10 11 11 10 11 11 11 12 12 12 13 14 12 12 12 12 12 12 12 12 12 11 10 11 11 11 9 8 10 11 10 10 11 10 12 15 17 14 3 -3 3 7 7 6 6 5 5 5 5 6 6 6 6 6 5 6 7 7 6 7 7
Height
5802 5802 5802 5802 5802 5803 5804 5804 5805 5805 5805 5805 5805 5805 5805 5805 5805 5806 5806 5806 5806 5806 5805 5805 5805 5805 5805 5805 5805 5804 5804 5804 5804 5804 5804 5804 5804 5804 5804 5804 5804 5804 5803 5803 5803 5802 5802 5802 5801 5801 5800 5800 5800 5799 5799 5798 5797 5797 5796 5795 5796 5797 5795 5792 5790 5790 5790 5790 5790 5789 5788 5788 5787 5785 5783 5783 5782 5781 5779 5779 5779 5779 5778 5776 5775 5773 5773 5773
5802 5803 5803 5803 5803 5804 5804 5805 5805 5806 5806 5805 5805 5805 5805 5805 5806 5806 5806 5805 5805 5805 5805 5804 5804 5804 5804 5804 5804 5804 5803 5803 5803 5803 5803 5803 5802 5802 5802 5802 5802 5802 5801 5801 5800 5800 5799 5799 5798 5798 5797 5797 5797 5796 5795 5795 5794 5794 5792 5792 5793 5794 5791 5789 5788 5787 5787 5786 5786 5784 5783 5783 5783 5781 5780 5780 5779 5778 5777 5776 5774 5773 5772 5771 5770 5768 5768 5768
5803 5803 5804 5804 5804 5805 5805 5805 5806 5806 5806 5805 5805 5805 5805 5805 5805 5805 5805 5804 5804 5804 5803 5803 5803 5803 5802 5802 5802 5803 5802 5802 5801 5801 5801 5801 5801 5801 5800 5800 5800 5800 5799 5799 5798 5798 5797 5796 5796 5795 5795 5794 5793 5793 5793 5792 5792 5791 5789 5789 5791 5790 5787 5785 5785 5784 5784 5783 5781 5779 5778 5778 5779 5777 5776 5775 5774 5774 5774 5772 5770 5768 5767 5766 5765 5764 5763 5763
5804 5804 5804 5805 5805 5805 5805 5805 5805 5805 5805 5805 5805 5805 5805 5805 5804 5804 5804 5803 5803 5802 5801 5801 5801 5801 5800 5800 5800 5801 5801 5800 5800 5799 5799 5799 5799 5799 5798 5798 5798 5797 5797 5796 5796 5795 5795 5794 5793 5793 5792 5792 5791 5790 5790 5790 5788 5787 5786 5787 5787 5785 5784 5782 5781 5780 5781 5780 5777 5774 5772 5773 5774 5772 5770 5770 5769 5770 5770 5768 5766 5764 5763 5761 5760 5759 5758 5758
5804 5804 5805 5805 5805 5805 5805 5805 5805 5805 5805 5804 5804 5804 5804 5804 5803 5803 5802 5801 5801 5800 5799 5799 5799 5798 5798 5798 5798 5799 5799 5798 5797 5797 5797 5797 5797 5797 5797 5796 5796 5795 5794 5794 5793 5792 5792 5791 5791 5790 5789 5789 5788 5787 5786 5786 5785 5784 5783 5784 5783 5781 5779 5778 5777 5777 5777 5776 5773 5770 5768 5769 5769 5767 5765 5765 5764 5763 5763 5763 5762 5760 5759 5758 5755 5754 5753 5753
5804 5805 5805 5805 5805 5805 5805 5805 5805 5805 5804 5804 5804 5803 5803 5803 5802 5801 5800 5799 5799 5798 5798 5797 5797 5797 5797 5796 5796 5797 5797 5796 5795 5796 5796 5795 5795 5795 5795 5794 5793 5793 5792 5791 5790 5790 5789 5788 5787 5786 5786 5785 5784 5783 5782 5781 5781 5780 5780 5780 5779 5777 5775 5774 5773 5772 5772 5771 5768 5766 5765 5765 5764 5762 5761 5759 5758 5756 5756 5757 5757 5756 5755 5754 5751 5750 5749 5748
5804 5805 5805 5805 5805 5805 5805 5805 5804 5804 5804 5803 5803 5802 5802 5801 5800 5799 5798 5797 5797 5796 5796 5796 5795 5795 5795 5794 5794 5795 5795 5794 5794 5794 5793 5793 5793 5793 5792 5791 5791 5790 5789 5789 5788 5787 5786 5785 5784 5783 5782 5781 5780 5779 5777 5776 5775 5775 5775 5775 5773 5771 5770 5769 5769 5768 5766 5764 5763 5761 5761 5761 5759 5758 5757 5754 5753 5752 5751 5751 5751 5750 5750 5749 5747 5746 5744 5743
5804 5804 5804 5804 5804 5805 5804 5804 5804 5803 5803 5802 5801 5801 5800 5799 5798 5797 5796 5796 5795 5795 5794 5794 5794 5793 5793 5793 5792 5793 5793 5793 5792 5791 5791 5791 5790 5790 5789 5789 5788 5787 5787 5786 5785 5784 5783 5781 5781 5780 5778 5777 5776 5775 5773 5772 5770 5769 5769 5769 5768 5766 5765 5765 5763 5762 5760 5758 5757 5756 5755 5755 5755 5754 5752 5750 5749 5748 5746 5745 5745 5745 5743 5742 5741 5741 5740 5738
5803 5803 5803 5803 5804 5804 5803 5803 5803 5802 5801 5800 5799 5798 5798 5797 5796 5795 5795 5794 5794 5793 5793 5792 5792 5792 5791 5791 5791 5791 5791 5791 5790 5790 5789 5788 5788 5787 5786 5786 5785 5784 5783 5782 5781 5780 5779 5778 5777 5776 5774 5773 5772 5770 5769 5768 5766 5765 5763 5763 5762 5761 5760 5760 5758 5756 5754 5752 5751 5751 5750 5750 5750 5749 5748 5746 5746 5744 5742 5740 5740 5739 5738 5736 5736 5735 5734 5733
5802 5802 5802 5803 5803 5802 5802 5802 5801 5800 5799 5798 5797 5796 5796 5795 5794 5794 5793 5792 5792 5792 5791 5791 5791 5790 5790 5789 5789 5789 5789 5788 5788 5788 5787 5786 5785 5785 5784 5783 5782 5781 5779 5778 5777 5776 5775 5774 5772 5771 5770 5768 5767 5766 5764 5764 5762 5761 5759 5758 5757 5756 5755 5755 5753 5752 5750 5746 5745 5746 5745 5745 5745 5744 5743 5743 5742 5740 5738 5736 5735 5734 5733 5732 5731 5729 5728 5726
5801 5801 5802 5801 5801 5801 5801 5800 5800 5799 5798 5797 5796 5795 5794 5793 5793 5792 5791 5791 5790 5790 5790 5790 5789 5789 5788 5788 5788 5787 5787 5786 5786 5785 5784 5783 5783 5781 5780 5779 5778 5777 5776 5774 5773 5772 5771 5770 5768 5767 5766 5765 5763 5762 5760 5759 5758 5757 5756 5755 5752 5751 5750 5749 5748 5748 5746 5742 5741 5742 5741 5740 5739 5739 5739 5739 5738 5736 5734 5732 5730 5729 5728 5727 5726 5724 5722 5721
5801 5801 5801 5801 5800 5800 5799 5799 5798 5797 5796 5795 5794 5793 5793 5792 5791 5791 5790 5790 5789 5789 5789 5788 5788 5787 5787 5786 5785 5785 5785 5784 5783 5782 5781 5780 5779 5778 5777 5775 5774 5773 5772 5771 5770 5769 5768 5766 5765 5763 5762 5761 5760 5758 5757 5756 5754 5753 5752 5751 5749 5748 5747 5745 5744 5744 5741 5738 5737 5738 5736 5736 5735 5735 5735 5735 5734 5732 5730 5728 5726 5725 5723 5722 5721 5719 5718 5716
5800 5800 5800 5800 5799 5798 5798 5797 5796 5795 5795 5794 5793 5792 5791 5791 5790 5790 5790 5789 5789 5788 5788 5787 5786 5786 5785 5784 5784 5783 5782 5782 5781 5779 5778 5777 5776 5775 5774 5773 5772 5770 5769 5768 5767 5765 5764 5763 5762 5760 5759 5758 5757 5756 5754 5753 5752 5750 5748 5748 5746 5745 5744 5742 5741 5740 5738 5734 5734 5733 5731 5732 5731 5731 5731 5731 5729 5728 5726 5724 5722 5720 5719 5717 5716 5714 5713 5711
5799 5799 5799 5799 5798 5797 5796 5795 5795 5794 5793 5792 5792 5791 5790 5790 5790 5789 5789 5789 5788 5788 5787 5786 5785 5785 5784 5783 5782 5781 5780 5779 5778 5777 5776 5774 5773 5772 5771 5770 5769 5768 5767 5765 5764 5763 5762 5760 5759 5758 5756 5756 5754 5753 5752 5750 5749 5747 5745 5744 5743 5742 5741 5739 5738 5736 5734 5731 5730 5729 5727 5728 5728 5727 5727 5726 5725 5723 5721 5720 5718 5716 5714 5712 5711 5709 5708 5706
5798 5798 5798 5797 5796 5795 5794 5794 5793 5792 5792 5791 5791 5790 5790 5790 5789 5789 5788 5788 5787 5786 5786 5785 5784 5783 5782 5781 5780 5779 5778 5777 5776 5775 5773 5772 5771 5770 5769 5768 5767 5766 5764 5763 5762 5761 5759 5758 5757 5755 5754 5753 5752 5750 5749 5747 5745 5744 5743 5741 5739 5738 5736 5735 5734 5733 5731 5727 5726 5725 5724 5724 5723 5723 5723 5722 5720 5718 5716 5714 5712 5710 5709 5707 5705 5704 5702 5701
5797 5797 5797 5796 5795 5794 5793 5792 5792 5791 5791 5790 5790 5790 5789 5789 5789 5788 5787 5787 5786 5785 5784 5783 5782 5781 5780 5779 5778 5777 5776 5775 5774 5773 5772 5771 5770 5769 5768 5766 5765 5764 5763 5761 5760 5759 5757 5756 5755 5753 5751 5750 5749 5747 5746 5744 5742 5740 5740 5738 5735 5734 5733 5731 5730 5728 5726 5723 5722 5721 5719 5719 5718 5718 5718 5717 5715 5713 5710 5709 5707 5705 5703 5701 5699 5698 5696 5694
5796 5796 5795 5794 5794 5793 5792 5791 5791 5790 5790 5790 5790 5789 5789 5788 5788 5787 5786 5785 5784 5784 5783 5782 5781 5780 5779 5778 5777 5776 5775 5774 5773 5772 5771 5770 5769 5768 5767 5765 5764 5762 5761 5760 5758 5757 5755 5754 5752 5750 5749 5747 5745 5744 5743 5741 5739 5737 5736 5735 5732 5730 5729 5727 5725 5724 5722 5719 5718 5717 5714 5713 5712 5712 5712 5711 5710 5707 5705 5703 5701 5699 5697 5695 5693 5691 5689 5687
5795 5794 5794 5793 5792 5792 5791 5791 5791 5790 5790 5790 5789 5789 5788 5787 5787 5786 5785 5784 5783 5782 5781 5780 5779 5779 5778 5777 5776 5775 5774 5773 5772 5771 5770 5769 5767 5766 5765 5764 5762 5761 5759 5757 5756 5754 5753 5751 5749 5747 5745 5744 5742 5741 5739 5738 5736 5734 5732 5731 5729 5726 5724 5722 5720 5718 5717 5715 5713 5711 5709 5707 5706 5706 5705 5704 5703 5701 5699 5698 5695 5693 5691 5688 5687 5685 5683 5681
5793 5793 5792 5792 5791 5791 5791 5791 5790 5790 5790 5789 5789 5788 5787 5787 5786 5785 5784 5783 5782 5781 5780 5780 5779 5778 5777 5776 5775 5774 5773 5772 5771 5769 5768 5767 5766 5764 5763 5762 5760 5759 5757 5755 5753 5752 5750 5748 5746 5744 5742 5740 5739 5737 5735 5734 5732 5730 5728 5727 5725 5723 5721 5719 5716 5713 5712 5710 5708 5706 5704 5701 5700 5700 5699 5698 5697 5695 5693 5691 5689 5686 5684 5682 5680 5679 5677 5675
5792 5792 5792 5791 5791 5791 5791 5791 5790 5790 5789 5789 5788 5787 5787 5786 5785 5784 5783 5782 5781 5780 5779 5779 5778 5777 5776 5775 5774 5773 5771 5770 5769 5768 5766 5765 5763 5762 5760 5759 5757 5756 5754 5752 5751 5749 5748 5746 5744 5742 5739 5737 5735 5733 5731 5729 5727 5726 5724 5722 5721 5719 5717 5715 5712 5709 5708 5706 5704 5702 5699 5697 5695 5694 5693 5692 5690 5689 5688 5685 5682 5680 5678 5676 5675 5673 5671 5669
5792 5791 5791 5791 5791 5791 5791 5790 5790 5789 5789 5788 5787 5786 5786 5785 5784 5783 5782 5781 5780 5779 5778 5777 5776 5776 5775 5773 5772 5771 5770 5768 5767 5766 5765 5763 5762 5760 5758 5757 5755 5753 5752 5750 5748 5747 5745 5742 5741 5739 5736 5734 5732 5730 5728 5726 5723 5721 5720 5718 5717 5715 5713 5711 5708 5705 5703 5701 5699 5697 5695 5692 5690 5688 5686 5685 5684 5683 5681 5678 5676 5674 5672 5670 5669 5667 5665 5663
5791 5791 5791 5791 5791 5791 5790 5790 5789 5789 5788 5787 5786 5786 5785 5784 5784 5783 5782 5781 5780 5779 5778 5776 5775 5774 5773 5772 5771 5769 5768 5767 5765 5764 5763 5761 5760 5758 5757 5755 5753 5751 5750 5748 5745 5744 5741 5739 5737 5735 5733 5731 5730 5728 5725 5723 5720 5718 5716 5715 5713 5710 5708 5706 5703 5700 5698 5696 5693 5691 5689 5686 5684 5683 5681 5679 5678 5676 5674 5672 5670 5668 5666 5664 5662 5660 5658 5656
5791 5791 5791 5791 5790 5790 5790 5789 5789 5788 5787 5787 5786 5785 5784 5784 5783 5782 5781 5780 5779 5778 5777 5775 5774 5773 5772 5770 5769 5768 5767 5765 5764 5763 5761 5760 5758 5756 5755 5753 5751 5749 5747 5745 5743 5741 5739 5736 5734 5732 5730 5728 5726 5724 5722 5719 5717 5715 5713 5711 5709 5706 5704 5702 5699 5696 5693 5691 5688 5686 5683 5680 5679 5678 5675 5673 5671 5670 5668 5666 5664 5662 5660 5658 5656 5654 5651 5649
5790 5791 5790 5790 5790 5790 5789 5789 5788 5787 5787 5786 5785 5784 5784 5783 5782 5781 5780 5779 5778 5777 5776 5774 5773 5772 5771 5769 5768 5767 5766 5764 5763 5761 5760 5758 5757 5755 5753 5751 5749 5747 5745 5743 5740 5738 5736 5734 5731 5729 5727 5725 5722 5720 5718 5716 5714 5711 5709 5706 5704 5702 5700 5697 5695 5691 5688 5686 5684 5680 5676 5675 5674 5672 5669 5667 5665 5664 5662 5660 5658 5656 5654 5652 5649 5647 5645 5643
5790 5790 5790 5790 5789 5789 5789 5788 5787 5786 5786 5785 5784 5784 5783 5782 5781 5781 5779 5778 5777 5776 5774 5773 5772 5771 5770 5768 5767 5765 5764 5763 5762 5760 5759 5757 5755 5753 5751 5749 5747 5745 5742 5740 5738 5736 5733 5731 5729 5726 5724 5722 5719 5717 5715 5713 5710 5708 5705 5703 5700 5698 5695 5692 5689 5687 5683 5681 5679 5675 5670 5669 5669 5666 5663 5661 5659 5657 5656 5654 5652 5650 5648 5646 5643 5641 5639 5637
5790 5790 5790 5789 5789 5788 5788 5787 5786 5785 5785 5784 5784 5783 5782 5781 5781 5780 5779 5778 5776 5775 5774 5772 5771 5770 5769 5768 5766 5765 5764 5762 5761 5759 5757 5755 5753 5751 5749 5747 5745 5743 5740 5737 5735 5733 5730 5728 5726 5723 5720 5718 5716 5713 5711 5709 5706 5704 5701 5699 5696 5693 5691 5688 5684 5681 5679 5675 5673 5670 5666 5663 5662 5660 5657 5655 5654 5652 5650 5649 5647 5645 5643 5640 5638 5636 5634 5632
5789 5789 5789 5788 5788 5787 5787 5786 5785 5785 5784 5783 5783 5782 5781 5780 5780 5779 5778 5777 5775 5774 5773 5772 5771 5770 5768 5767 5766 5764 5762 5761 5759 5758 5756 5754 5752 5750 5747 5745 5743 5740 5738 5735 5732 5730 5727 5725 5722 5719 5717 5714 5712 5709 5707 5705 5702 5699 5697 5694 5691 5688 5685 5682 5679 5676 5673 5670 5668 5665 5661 5656 5655 5654 5652 5650 5648 5647 5645 5643 5641 5639 5637 5635 5633 5630 5628 5627
5789 5788 5788 5787 5787 5787 5786 5786 5785 5784 5783 5783 5782 5781 5781 5780 5779 5778 5777 5776 5775 5773 5772 5771 5770 5769 5768 5766 5765 5763 5762 5760 5758 5756 5755 5753 5750 5748 5746 5743 5741 5738 5735 5732 5729 5727 5724 5722 5719 5716 5713 5711 5708 5705 5703 5700 5698 5695 5692 5689 5686 5683 5680 5676 5673 5671 5667 5664 5663 5660 5655 5650 5649 5648 5647 5645 5643 5641 5639 5638 5636 5634 5632 5630 5627 5625 5624 5622
5788 5787 5787 5787 5786 5786 5785 5785 5784 5783 5783 5782 5782 5781 5780 5779 5778 5777 5776 5775 5774 5773 5772 5771 5769 5768 5767 5766 5764 5763 5761 5759 5757 5755 5753 5751 5748 5746 5743 5741 5738 5735 5733 5730 5727 5724 5721 5719 5716 5713 5710 5707 5704 5701 5698 5696 5692 5690 5687 5684 5681 5677 5674 5670 5667 5664 5660 5658 5657 5653 5649 5645 5643 5643 5642 5640 5639 5636 5634 5633 5631 5629 5626 5624 5623 5621 5619 5617
5787 5786 5786 5786 5786 5785 5785 5784 5784 5783 5782 5782 5781 5780 5779 5778 5777 5776 5775 5775 5774 5772 5771 5770 5769 5767 5766 5764 5763 5762 5760 5758 5756 5753 5750 5748 5745 5742 5739 5736 5733 5731 5728 5726 5723 5721 5719 5716 5713 5710 5707 5705 5701 5697 5694 5691 5687 5684 5681 5679 5676 5672 5668 5665 5661 5659 5656 5653 5650 5646 5644 5640 5637 5637 5636 5635 5635 5633 5630 5628 5626 5624 5622 5620 5618 5616 5614 5612
5786 5786 5785 5785 5785 5785 5785 5784 5783 5783 5782 5781 5781 5780 5779 5778 5777 5776 5775 5774 5773 5772 5771 5769 5768 5767 5765 5764 5762 5761 5758 5756 5754 5751 5748 5746 5743 5740 5738 5735 5732 5730 5727 5725 5722 5719 5716 5713 5710 5707 5705 5702 5699 5694 5689 5686 5682 5679 5675 5672 5669 5666 5662 5659 5655 5652 5650 5647 5644 5641 5639 5636 5633 5632 5632 5632 5631 5629 5626 5623 5621 5620 5618 5616 5614 5611 5609 5607
5785 5785 5785 5785 5784 5784 5784 5784 5783 5783 5782 5781 5780 5779 5778 5778 5777 5776 5775 5774 5773 5771 5770 5769 5768 5766 5765 5763 5761 5759 5757 5754 5752 5750 5747 5745 5742 5740 5737 5734 5732 5729 5727 5724 5721 5717 5713 5710 5707 5704 5701 5698 5695 5691 5686 5681 5678 5674 5670 5665 5662 5659 5656 5652 5649 5647 5644 5642 5640 5637 5635 5633 5631 5629 5629 5628 5626 5625 5622 5619 5616 5615 5613 5611 5609 5607 5605 5603
5784 5784 5784 5784 5784 5784 5784 5784 5783 5782 5782 5781 5780 5779 5778 5778 5777 5776 5775 5774 5772 5771 5770 5769 5768 5766 5764 5762 5760 5758 5755 5752 5750 5747 5745 5741 5739 5736 5733 5730 5727 5724 5722 5719 5717 5714 5710 5707 5703 5700 5697 5694 5691 5686 5681 5676 5672 5667 5663 5658 5654 5650 5647 5644 5641 5640 5638 5637 5637 5634 5631 5630 5628 5626 5625 5623 5622 5620 5617 5614 5613 5611 5609 5607 5605 5603 5601 5599
5784 5784 5784 5784 5784 5784 5784 5783 5783 5782 5781 5781 5780 5779 5778 5778 5777 5776 5774 5773 5772 5771 5770 5768 5767 5765 5763 5761 5758 5756 5753 5751 5748 5745 5742 5739 5736 5733 5730 5728 5725 5722 5719 5716 5713 5710 5706 5703 5699 5696 5692 5688 5685 5681 5676 5670 5665 5661 5656 5651 5648 5644 5641 5639 5636 5634 5632 5631 5631 5630 5628 5626 5624 5623 5621 5619 5617 5616 5613 5611 5610 5608 5606 5604 5601 5600 5598 5595
5784 5784 5784 5784 5784 5784 5783 5783 5782 5782 5781 5781 5780 5779 5778 5777 5777 5775 5774 5773 5772 5771 5769 5767 5765 5763 5761 5758 5756 5753 5751 5748 5745 5742 5739 5736 5733 5731 5728 5726 5723 5720 5717 5714 5711 5707 5703 5700 5696 5692 5688 5684 5681 5677 5672 5667 5662 5657 5653 5649 5645 5642 5639 5636 5634 5631 5628 5626 5626 5625 5623 5622 5621 5620 5618 5616 5614 5612 5610 5608 5607 5604 5602 5600 5598 5596 5594 5591
5784 5784 5785 5784 5784 5784 5783 5783 5782 5782 5781 5781 5780 5779 5778 5777 5776 5775 5774 5773 5772 5770 5768 5766 5764 5761 5759 5756 5753 5751 5748 5745 5742 5739 5736 5733 5731 5728 5725 5723 5720 5717 5714 5711 5708 5705 5700 5696 5693 5689 5685 5681 5676 5672 5668 5663 5658 5654 5650 5647 5643 5639 5636 5634 5632 5630 5626 5625 5623 5621 5620 5619 5617 5616 5615 5613 5610 5608 5606 5605 5603 5601 5599 5597 5595 5592 5589 5587
5785 5785 5785 5784 5784 5784 5783 5783 5782 5782 5781 5781 5780 5779 5778 5777 5776 5775 5774 5773 5771 5769 5767 5765 5762 5760 5757 5754 5751 5748 5745 5742 5739 5736 5734 5731 5728 5725 5722 5720 5717 5714 5710 5707 5704 5702 5697 5692 5689 5685 5681 5676 5672 5667 5662 5658 5654 5649 5646 5643 5640 5637 5634 5631 5628 5627 5625 5623 5621 5619 5618 5616 5615 5613 5612 5610 5607 5605 5603 5601 5599 5597 5595 5593 5591 5588 5586 5583
5785 5785 5785 5784 5784 5784 5783 5783 5783 5782 5781 5781 5780 5779 5778 5777 5776 5775 5774 5772 5770 5768 5766 5763 5761 5758 5755 5752 5749 5747 5744 5741 5738 5735 5732 5729 5726 5723 5720 5717 5714 5711 5708 5704 5700 5698 5695 5689 5685 5681 5677 5672 5667 5663 5658 5654 5650 5646 5641 5638 5636 5634 5632 5629 5625 5623 5621 5620 5619 5618 5616 5614 5612 5611 5609 5607 5605 5603 5601 5599 5597 5594 5592 5590 5587 5585 5582 5579
5785 5785 5785 5785 5785 5784 5784 5783 5783 5782 5782 5781 5780 5779 5778 5777 5776 5775 5773 5771 5769 5767 5764 5762 5759 5756 5753 5750 5747 5745 5742 5739 5736 5733 5730 5727 5724 5721 5717 5714 5711 5708 5705 5701 5698 5694 5691 5687 5682 5677 5674 5669 5664 5660 5656 5651 5648 5645 5641 5637 5634 5631 5629 5627 5623 5621 5619 5617 5616 5615 5614 5612 5610 5609 5607 5605 5603 5601 5599 5597 5594 5592 5589 5586 5584 5581 5577 5574
5786 5786 5786 5785 5785 5785 5784 5784 5783 5783 5782 5781 5780 5779 5778 5777 5776 5774 5772 5770 5768 5765 5763 5760 5757 5754 5751 5748 5746 5743 5740 5737 5734 5731 5728 5725 5721 5718 5715 5712 5709 5706 5702 5699 5695 5691 5688 5685 5680 5675 5671 5666 5662 5658 5654 5649 5646 5644 5641 5637 5634 5630 5628 5626 5623 5620 5618 5616 5614 5612 5612 5610 5608 5606 5605 5602 5601 5598 5596 5593 5591 5588 5585 5582 5579 5575 5572 5567
5786 5786 5786 5786 5785 5785 5784 5784 5783 5783 5782 5781 5781 5779 5778 5777 5775 5773 5771 5769 5766 5764 5761 5758 5755 5752 5750 5747 5744 5741 5738 5735 5732 5729 5726 5723 5720 5716 5713 5710 5706 5703 5700 5696 5693 5689 5686 5682 5678 5673 5668 5664 5658 5654 5650 5645 5642 5640 5637 5634 5631 5629 5627 5625 5623 5620 5617 5614 5612 5610 5608 5608 5606 5603 5601 5599 5597 5595 5592 5589 5587 5584 5581 5577 5574 5570 5566 5562
5787 5787 5787 5786 5786 5785 5785 5784 5784 5783 5782 5782 5781 5779 5778 5776 5774 5772 5770 5767 5765 5762 5759 5756 5754 5751 5748 5745 5742 5740 5737 5733 5730 5727 5724 5721 5718 5714 5711 5707 5704 5701 5697 5694 5691 5688 5684 5680 5675 5670 5665 5660 5655 5651 5648 5643 5640 5638 5635 5632 5629 5626 5624 5622 5621 5619 5616 5613 5610 5608 5606 5605 5603 5601 5598 5596 5593 5590 5587 5585 5582 5579 5576 5573 5569 5566 5562 5558
5788 5788 5788 5787 5786 5786 5786 5785 5784 5784 5783 5782 5781 5779 5777 5775 5773 5771 5768 5766 5763 5761 5758 5755 5752 5749 5747 5744 5741 5738 5735 5732 5729 5726 5722 5719 5715 5712 5709 5705 5702 5698 5695 5692 5689 5685 5682 5678 5674 5668 5663 5658 5653 5649 5646 5642 5638 5636 5634 5631 5627 5625 5622 5620 5618 5616 5615 5612 5609 5606 5604 5602 5600 5598 5595 5592 5590 5587 5584 5581 5578 5575 5571 5568 5564 5561 5557 5553
5789 5788 5788 5787 5787 5787 5786 5785 5785 5784 5783 5782 5780 5779 5777 5774 5772 5770 5767 5765 5762 5759 5757 5754 5751 5748 5745 5742 5739 5736 5733 5730 5727 5724 5720 5717 5713 5710 5707 5703 5700 5696 5693 5690 5686 5683 5679 5675 5671 5667 5663 5658 5653 5648 5644 5640 5636 5633 5631 5628 5625 5622 5620 5618 5615 5613 5612 5610 5607 5603 5601 5600 5597 5594 5591 5589 5586 5583 5580 5577 5574 5570 5567 5563 5559 5556 5551 5547
5789 5789 5789 5788 5788 5787 5786 5786 5785 5784 5783 5782 5780 5778 5776 5774 5771 5769 5766 5764 5761 5758 5755 5753 5750 5747 5744 5741 5738 5735 5732 5729 5725 5722 5718 5715 5711 5708 5705 5701 5698 5695 5691 5688 5684 5680 5676 5672 5668 5664 5659 5655 5650 5645 5641 5637 5634 5630 5628 5626 5624 5621 5618 5616 5613 5611 5609 5607 5605 5600 5597 5597 5594 5590 5587 5585 5582 5579 5576 5573 5570 5566 5563 5559 5555 5550 5545 5540
5790 5790 5789 5789 5788 5787 5787 5787 5786 5784 5783 5781 5779 5777 5775 5773 5770 5768 5765 5762 5760 5757 5754 5751 5748 5746 5743 5740 5737 5734 5731 5727 5724 5720 5717 5713 5710 5706 5703 5700 5697 5693 5690 5686 5682 5678 5674 5669 5665 5661 5656 5651 5647 5643 5639 5635 5632 5629 5627 5624 5622 5620 5617 5614 5611 5609 5606 5604 5603 5599 5594 5593 5591 5587 5583 5581 5577 5574 5571 5568 5565 5561 5557 5553 5549 5544 5539 5534
5791 5791 5790 5789 5789 5788 5788 5787 5785 5784 5782 5781 5779 5777 5774 5772 5769 5767 5764 5762 5759 5756 5753 5751 5748 5745 5742 5739 5736 5733 5729 5726 5722 5719 5715 5712 5709 5705 5702 5698 5695 5691 5688 5684 5680 5676 5672 5668 5663 5659 5655 5651 5646 5642 5638 5635 5632 5629 5626 5623 5620 5618 5615 5612 5609 5607 5604 5600 5599 5597 5592 5589 5587 5584 5581 5578 5574 5571 5567 5564 5560 5556 5551 5547 5542 5538 5534 5529
5792 5791 5791 5790 5789 5789 5788 5787 5785 5784 5782 5780 5778 5776 5774 5771 5768 5766 5763 5761 5758 5755 5753 5750 5747 5745 5741 5738 5735 5731 5728 5724 5721 5718 5714 5711 5707 5704 5700 5697 5693 5690 5686 5682 5679 5675 5671 5667 5663 5658 5654 5650 5645 5642 5638 5635 5631 5628 5624 5621 5619 5616 5613 5611 5607 5604 5601 5598 5595 5593 5590 5587 5583 5580 5578 5575 5571 5567 5563 5559 5555 5550 5546 5541 5537 5533 5528 5523
5792 5792 5791 5790 5790 5789 5788 5787 5785 5783 5781 5780 5778 5775 5773 5770 5768 5766 5763 5760 5758 5755 5752 5749 5746 5743 5740 5737 5733 5730 5727 5723 5720 5716 5713 5709 5706 5702 5699 5695 5692 5688 5685 5681 5677 5674 5670 5666 5662 5658 5654 5649 5645 5641 5638 5634 5630 5627 5623 5620 5617 5615 5612 5609 5606 5602 5599 5596 5593 5590 5587 5584 5580 5576 5574 5571 5567 5563 5559 5555 5550 5546 5541 5536 5532 5527 5522 5517
5793 5793 5792 5791 5790 5789 5788 5786 5785 5783 5781 5779 5777 5775 5772 5770 5768 5765 5762 5760 5757 5754 5751 5748 5745 5742 5738 5735 5732 5729 5726 5722 5718 5715 5711 5708 5704 5701 5697 5694 5690 5687 5683 5680 5676 5672 5669 5665 5661 5657 5653 5649 5645 5641 5637 5633 5629 5626 5623 5619 5616 5613 5610 5607 5604 5600 5596 5593 5590 5586 5583 5581 5577 5573 5569 5566 5562 5559 5555 5550 5546 5541 5536 5532 5527 5522 5517 5512
5794 5793 5792 5791 5790 5789 5788 5786 5784 5782 5780 5779 5777 5774 5772 5770 5767 5764 5762 5759 5756 5753 5750 5747 5744 5741 5738 5734 5731 5728 5724 5721 5717 5714 5710 5707 5703 5700 5696 5693 5689 5685 5682 5678 5675 5671 5667 5664 5660 5656 5652 5649 5645 5641 5637 5633 5629 5625 5622 5619 5615 5612 5609 5605 5602 5598 5594 5590 5587 5584 5580 5577 5573 5569 5566 5562 5558 5554 5550 5546 5541 5536 5531 5526 5522 5517 5512 5506
5794 5793 5793 5791 5790 5789 5787 5785 5784 5782 5780 5778 5776 5774 5772 5769 5767 5764 5761 5759 5756 5753 5750 5746 5743 5740 5737 5733 5730 5726 5723 5719 5716 5713 5709 5706 5702 5698 5695 5692 5688 5684 5681 5677 5673 5670 5666 5663 5659 5656 5652 5648 5644 5641 5637 5633 5629 5625 5621 5618 5614 5611 5607 5604 5600 5595 5591 5586 5583 5580 5577 5573 5569 5565 5561 5558 5554 5550 5546 5541 5536 5531 5526 5521 5516 5511 5506 5501